�N����,����,�~����,�C��,���x,�C��,����,���ϕ���,�ő�u�ԕ���,�ő厞����,���˗�,�I�_���x,�n�����x,�ő啗���N��,DTYPE
"17/08/21","00:10",0.0,24.7,87.6,1005.7,309.9,0.7,1.6,334.2,0.00,22.5,27.6,"00:09:20",1
"17/08/21","00:20",0.0,24.7,87.7,1006.0,296.8,0.6,1.4,326.2,0.00,22.6,27.4,"00:14:24",1
"17/08/21","00:30",0.0,24.6,87.8,1005.7,276.9,0.5,0.8,275.0,0.00,22.5,27.3,"00:29:36",1
"17/08/21","00:40",0.0,24.5,88.2,1005.7,306.6,0.7,1.4,316.0,0.00,22.5,27.3,"00:38:16",1
"17/08/21","00:50",0.0,24.7,88.1,1005.5,331.0,1.2,2.5,334.7,0.00,22.6,27.3,"00:40:16",1
"17/08/21","01:00",0.0,24.6,87.5,1005.2,293.3,0.6,1.1,352.0,0.00,22.4,27.3,"00:50:08",1
"17/08/21","01:10",0.0,24.5,87.8,1005.5,299.2,0.5,1.0,313.6,0.00,22.4,27.2,"01:07:28",1
"17/08/21","01:20",0.0,24.2,88.4,1005.5,287.1,0.6,1.0,321.2,0.00,22.2,27.2,"01:17:52",1
"17/08/21","01:30",0.0,24.0,89.1,1005.2,309.8,0.8,1.3,329.6,0.00,22.1,27.2,"01:22:48",1
"17/08/21","01:40",0.0,24.0,89.4,1005.2,310.9,1.1,1.9,325.6,0.00,22.2,27.0,"01:36:16",1
"17/08/21","01:50",0.0,24.1,89.5,1005.2,336.6,1.0,1.8,342.2,0.00,22.3,27.0,"01:41:52",1
"17/08/21","02:00",0.0,24.1,89.4,1005.7,318.2,0.6,1.6,351.5,0.00,22.3,26.9,"01:50:32",1
"17/08/21","02:10",0.0,24.0,89.6,1005.5,308.6,0.8,1.2,307.8,0.00,22.2,26.8,"02:05:20",1
"17/08/21","02:20",0.0,23.8,90.1,1005.5,296.4,0.7,1.0,275.7,0.00,22.1,26.9,"02:19:44",1
"17/08/21","02:30",0.0,23.7,90.3,1005.2,278.1,1.0,1.3,292.4,0.00,22.1,26.7,"02:22:48",1
"17/08/21","02:40",0.0,23.8,90.3,1005.5,289.1,0.7,1.1,314.0,0.00,22.2,26.8,"02:37:20",1
"17/08/21","02:50",0.0,24.0,90.4,1005.5,288.9,0.7,1.4,328.1,0.00,22.4,26.6,"02:44:24",1
"17/08/21","03:00",0.0,24.3,90.2,1005.2,301.0,0.7,1.2,314.7,0.00,22.6,26.5,"02:54:24",1
"17/08/21","03:10",0.0,24.3,89.7,1005.5,318.6,0.8,1.3,341.0,0.00,22.5,26.8,"03:09:52",1
"17/08/21","03:20",0.0,24.2,89.3,1005.7,295.0,0.7,2.0,342.7,0.00,22.4,26.5,"03:11:44",1
"17/08/21","03:30",0.0,24.2,89.3,1005.7,274.8,0.5,0.8,249.4,0.00,22.4,26.8,"03:28:24",1
"17/08/21","03:40",0.0,24.2,89.1,1005.5,281.1,0.7,1.3,329.7,0.00,22.3,26.6,"03:34:08",1
"17/08/21","03:50",0.0,24.2,89.1,1005.7,321.7,1.0,1.6,332.7,0.00,22.3,26.5,"03:46:08",1
"17/08/21","04:00",0.0,24.0,89.3,1006.0,296.9,0.8,1.2,322.4,0.00,22.2,26.7,"03:52:24",1
"17/08/21","04:10",0.0,24.0,89.4,1005.7,293.8,0.7,1.1,289.4,0.00,22.2,26.6,"04:07:28",1
"17/08/21","04:20",0.0,24.1,89.4,1005.7,276.3,0.7,1.1,262.6,0.00,22.3,26.7,"04:15:04",1
"17/08/21","04:30",0.0,24.2,89.4,1005.7,305.8,0.8,1.3,334.9,0.00,22.4,26.6,"04:25:12",1
"17/08/21","04:40",0.0,24.2,89.2,1005.7,292.1,0.6,0.9,320.9,0.00,22.3,26.5,"04:32:16",1
"17/08/21","04:50",0.0,24.3,89.0,1005.7,276.0,0.7,1.2,258.5,0.00,22.4,26.5,"04:41:20",1
"17/08/21","05:00",0.0,24.3,88.8,1006.2,311.9,0.6,1.1,327.3,0.00,22.4,26.4,"04:52:16",1
"17/08/21","05:10",0.0,24.3,89.1,1006.2,317.6,0.6,1.1,319.5,0.00,22.4,26.7,"05:02:56",1
"17/08/21","05:20",0.0,24.1,89.1,1006.0,293.1,0.7,1.2,307.8,0.00,22.2,26.5,"05:18:48",1
"17/08/21","05:30",0.0,24.0,89.3,1006.2,303.7,0.8,1.7,324.1,0.00,22.2,26.3,"05:20:02",1
"17/08/21","05:40",0.0,24.0,89.4,1006.0,311.9,1.0,1.9,333.3,0.00,22.2,26.2,"05:31:04",1
"17/08/21","05:50",0.0,24.1,89.7,1006.2,301.3,0.7,1.6,336.9,0.00,22.3,26.3,"05:42:16",1
"17/08/21","06:00",0.0,24.2,89.8,1006.0,290.0,0.8,1.6,340.8,0.00,22.5,26.3,"05:58:56",1
"17/08/21","06:10",0.0,24.5,89.9,1006.2,334.6,0.8,2.1,345.6,0.00,22.8,26.3,"06:01:04",1
"17/08/21","06:20",0.0,24.5,89.9,1006.7,305.2,0.3,1.0,347.0,0.00,22.8,26.3,"06:13:12",1
"17/08/21","06:30",0.0,24.7,90.0,1006.2,335.3,0.7,1.6,340.4,0.00,23.0,26.1,"06:22:56",1
"17/08/21","06:40",0.0,24.9,90.2,1006.2,324.5,0.3,0.6,334.8,0.00,23.2,26.3,"06:30:48",1
"17/08/21","06:50",0.0,24.9,89.6,1006.7,343.8,0.6,1.1,348.8,0.00,23.1,26.1,"06:44:08",1
"17/08/21","07:00",0.0,25.1,89.4,1006.9,325.9,0.6,0.9,340.3,0.01,23.3,26.2,"06:53:04",1
"17/08/21","07:10",0.0,25.3,88.6,1006.7,271.2,0.6,1.0,248.8,0.02,23.3,26.3,"07:05:36",1
"17/08/21","07:20",0.0,25.5,88.3,1006.9,295.1,0.6,1.1,344.8,0.01,23.5,26.3,"07:11:04",1
"17/08/21","07:30",0.0,25.6,87.6,1006.9,283.2,0.5,0.9,261.8,0.02,23.4,26.4,"07:23:20",1
"17/08/21","07:40",0.0,25.7,87.2,1006.9,298.1,0.5,0.9,324.5,0.01,23.5,26.5,"07:34:24",1
"17/08/21","07:50",0.0,25.8,86.9,1006.9,287.3,0.6,1.1,308.6,0.01,23.5,26.5,"07:49:12",1
"17/08/21","08:00",0.0,25.8,86.7,1006.9,286.1,0.5,0.9,302.6,0.01,23.5,26.4,"07:57:44",1
"17/08/21","08:10",0.0,25.9,86.5,1007.1,297.4,0.5,1.0,335.0,0.02,23.5,26.2,"08:08:48",1
"17/08/21","08:20",0.0,26.0,86.7,1007.1,273.7,0.3,0.8,260.8,0.02,23.6,26.5,"08:10:16",1
"17/08/21","08:30",0.0,26.2,86.9,1007.1,320.2,0.6,1.2,335.3,0.02,23.9,26.5,"08:25:20",1
"17/08/21","08:40",0.0,26.5,87.1,1007.1,337.2,0.7,1.6,340.8,0.05,24.2,26.4,"08:32:40",1
"17/08/21","08:50",0.0,26.8,86.0,1006.9,297.0,0.6,1.4,341.5,0.07,24.3,26.6,"08:42:40",1
"17/08/21","09:00",0.0,27.3,85.5,1006.7,256.1,0.3,1.0,238.2,0.08,24.7,26.8,"08:54:40",1
"17/08/21","09:10",0.0,27.8,81.6,1007.1,247.6,0.2,0.6,321.8,0.11,24.4,26.7,"09:04:16",1
"17/08/21","09:20",0.0,28.7,78.6,1006.7,74.7,0.2,0.9,18.7,0.17,24.7,26.9,"09:18:40",1
"17/08/21","09:30",0.0,30.2,73.6,1006.4,50.5,0.5,1.1,334.7,0.37,25.0,27.0,"09:21:28",1
"17/08/21","09:40",0.0,30.1,73.3,1006.9,355.0,0.5,1.2,349.7,0.34,24.8,27.2,"09:36:00",1
"17/08/21","09:50",0.0,30.6,71.2,1007.8,101.6,0.7,1.3,21.6,0.38,24.8,27.5,"09:45:04",1
"17/08/21","10:00",0.0,31.1,70.6,1008.1,129.6,0.7,1.4,181.2,0.37,25.2,27.6,"09:52:08",1
"17/08/21","10:10",0.0,31.1,69.9,1008.1,28.7,0.5,1.4,45.6,0.40,25.0,27.7,"10:02:56",1
"17/08/21","10:20",0.0,31.7,68.3,1008.1,4.5,0.6,1.6,354.0,0.47,25.2,28.0,"10:15:44",1
"17/08/21","10:30",0.0,32.0,67.8,1008.1,164.3,0.7,1.9,147.1,0.50,25.3,28.2,"10:27:44",1
"17/08/21","10:40",0.0,31.9,66.4,1008.1,233.4,0.8,2.1,207.5,0.46,24.9,28.5,"10:31:36",1
"17/08/21","10:50",0.0,31.4,64.7,1008.1,40.7,0.8,2.1,65.6,0.28,24.0,28.5,"10:49:12",1
"17/08/21","11:00",0.0,33.1,63.1,1008.3,136.1,0.7,2.1,135.0,0.57,25.2,28.7,"10:58:40",1
"17/08/21","11:10",0.0,33.1,60.5,1008.6,161.0,1.1,2.5,212.3,0.59,24.5,29.2,"11:09:20",1
"17/08/21","11:20",0.0,32.6,61.5,1008.3,193.8,0.8,2.1,226.7,0.44,24.3,29.2,"11:11:36",1
"17/08/21","11:30",0.0,32.0,61.9,1008.3,204.3,1.2,3.4,203.8,0.32,23.8,29.4,"11:25:12",1
"17/08/21","11:40",0.0,33.4,59.8,1007.8,331.4,0.3,1.2,199.4,0.45,24.6,29.6,"11:30:02",1
"17/08/21","11:50",0.0,33.0,58.5,1007.8,212.4,1.2,4.0,222.6,0.52,23.8,29.7,"11:41:36",1
"17/08/21","12:00",0.0,33.7,55.1,1008.1,146.8,1.0,2.9,188.7,0.48,23.5,29.8,"11:56:16",1
"17/08/21","12:10",0.0,33.1,57.9,1008.1,208.0,1.0,2.8,227.6,0.40,23.7,30.2,"12:06:48",1
"17/08/21","12:20",0.0,33.8,55.9,1008.3,183.6,1.5,4.1,228.4,0.55,23.8,30.3,"12:13:20",1
"17/08/21","12:30",0.0,33.9,53.1,1007.8,176.8,1.5,4.3,220.6,0.55,23.0,30.4,"12:23:20",1
"17/08/21","12:40",0.0,34.3,51.9,1008.1,151.5,1.1,3.3,128.6,0.56,23.0,30.7,"12:38:48",1
"17/08/21","12:50",0.0,34.4,51.7,1008.1,159.6,1.5,4.2,133.1,0.56,23.1,31.2,"12:49:36",1
"17/08/21","13:00",0.0,34.2,49.8,1008.1,158.8,1.5,3.6,162.5,0.54,22.3,31.0,"12:50:08",1
"17/08/21","13:10",0.0,34.2,51.8,1007.8,231.8,1.1,3.2,197.3,0.55,22.9,31.3,"13:02:48",1
"17/08/21","13:20",0.0,34.3,52.1,1008.1,185.8,1.7,4.4,223.1,0.53,23.1,31.3,"13:17:28",1
"17/08/21","13:30",0.0,34.8,53.0,1007.8,162.5,1.1,4.1,200.6,0.43,23.8,31.6,"13:23:44",1
"17/08/21","13:40",0.0,35.1,54.7,1007.8,47.4,0.8,2.4,328.5,0.47,24.6,31.6,"13:38:40",1
"17/08/21","13:50",0.0,34.8,54.0,1007.8,206.2,1.5,4.4,226.3,0.55,24.2,31.7,"13:43:12",1
"17/08/21","14:00",0.0,34.8,54.0,1007.8,205.7,1.6,3.3,228.2,0.54,24.2,31.8,"13:51:20",1
"17/08/21","14:10",0.0,34.8,52.7,1007.6,197.4,1.6,4.3,212.6,0.52,23.7,32.2,"14:03:04",1
"17/08/21","14:20",0.0,34.7,50.5,1007.4,186.0,1.6,3.9,135.0,0.41,23.0,32.0,"14:13:28",1
"17/08/21","14:30",0.0,35.5,51.5,1007.6,216.7,1.2,3.2,241.3,0.51,24.0,32.1,"14:23:12",1
"17/08/21","14:40",0.0,34.8,50.1,1007.8,215.6,1.8,4.7,226.3,0.46,22.9,32.1,"14:37:28",1
"17/08/21","14:50",0.0,35.0,46.0,1007.4,245.4,1.1,2.8,222.2,0.45,21.7,32.1,"14:40:56",1
"17/08/21","15:00",0.0,35.0,44.8,1007.6,224.5,2.1,5.1,225.4,0.43,21.3,32.2,"14:55:44",1
"17/08/21","15:10",0.0,35.0,45.1,1007.4,193.2,2.2,4.9,218.6,0.41,21.4,32.1,"15:05:12",1
"17/08/21","15:20",0.0,34.7,45.0,1007.1,205.6,2.3,5.6,226.1,0.39,21.1,31.9,"15:13:52",1
"17/08/21","15:30",0.0,34.9,45.2,1006.9,224.4,1.1,2.6,217.1,0.38,21.3,31.8,"15:22:24",1
"17/08/21","15:40",0.0,34.6,46.4,1006.7,198.6,1.7,3.9,224.7,0.35,21.5,32.0,"15:32:48",1
"17/08/21","15:50",0.0,34.7,46.1,1006.7,240.8,1.2,4.0,230.2,0.32,21.5,31.9,"15:44:40",1
"17/08/21","16:00",0.0,34.9,45.3,1006.4,237.7,1.3,4.0,230.6,0.31,21.4,31.9,"15:55:20",1
"17/08/21","16:10",0.0,35.1,45.2,1006.4,231.8,1.2,2.8,223.3,0.29,21.5,31.9,"16:06:44",1
"17/08/21","16:20",0.0,34.7,46.6,1006.2,250.9,1.1,2.4,215.7,0.26,21.6,31.8,"16:16:48",1
"17/08/21","16:30",0.0,34.5,46.4,1006.2,253.5,1.2,3.4,184.4,0.23,21.4,31.9,"16:29:52",1
"17/08/21","16:40",0.0,34.2,47.8,1005.7,255.6,1.3,3.3,225.4,0.20,21.6,31.7,"16:35:20",1
"17/08/21","16:50",0.0,34.3,48.8,1005.7,261.2,0.7,2.8,337.3,0.17,22.0,31.5,"16:44:08",1
"17/08/21","17:00",0.0,34.0,47.1,1006.0,313.7,1.1,4.9,346.0,0.14,21.2,31.6,"16:59:44",1
"17/08/21","17:10",0.0,33.8,50.1,1006.0,320.2,1.0,3.1,346.7,0.12,22.0,31.6,"17:00:16",1
"17/08/21","17:20",0.0,33.7,49.5,1005.7,313.2,0.7,2.0,338.0,0.11,21.7,31.2,"17:12:56",1
"17/08/21","17:30",0.0,33.6,50.6,1005.5,298.6,0.6,2.2,353.9,0.09,22.0,31.2,"17:26:40",1
"17/08/21","17:40",0.0,33.3,52.0,1005.5,290.4,0.6,2.2,349.7,0.06,22.1,31.2,"17:35:36",1
"17/08/21","17:50",0.0,32.7,55.6,1005.5,267.5,0.5,2.1,334.5,0.04,22.7,31.1,"17:41:20",1
"17/08/21","18:00",0.0,32.0,57.4,1005.5,240.8,0.5,1.8,221.2,0.03,22.6,31.1,"17:51:04",1
"17/08/21","18:10",0.0,31.5,58.3,1005.7,263.9,0.6,1.8,299.9,0.02,22.4,30.7,"18:01:44",1
"17/08/21","18:20",0.0,31.1,59.8,1005.0,224.8,0.7,1.9,215.4,0.01,22.4,30.8,"18:12:16",1
"17/08/21","18:30",0.0,30.5,62.4,1005.0,318.7,0.7,1.9,343.7,0.00,22.5,30.7,"18:26:00",1
"17/08/21","18:40",0.0,30.0,65.4,1004.8,295.8,0.3,1.4,233.3,0.00,22.8,30.5,"18:32:32",1
"17/08/21","18:50",0.0,29.7,66.0,1004.8,224.1,0.6,1.8,192.0,0.00,22.7,30.1,"18:42:32",1
"17/08/21","19:00",0.0,29.5,65.9,1004.5,258.9,0.5,1.4,147.7,0.00,22.5,30.2,"18:56:32",1
"17/08/21","19:10",0.0,29.4,66.6,1004.5,273.5,0.5,1.4,295.6,0.00,22.6,29.8,"19:07:36",1
"17/08/21","19:20",0.0,29.1,68.3,1004.1,347.7,0.7,2.1,338.6,0.00,22.7,30.2,"19:19:20",1
"17/08/21","19:30",0.0,28.6,70.5,1004.8,262.7,0.2,0.9,320.2,0.00,22.7,29.9,"19:20:08",1
"17/08/21","19:40",0.0,28.2,73.0,1005.0,332.2,0.7,1.7,347.2,0.00,22.9,29.9,"19:37:20",1
"17/08/21","19:50",0.0,27.8,74.9,1005.2,341.3,1.0,1.6,348.7,0.00,23.0,29.7,"19:42:56",1
"17/08/21","20:00",0.0,27.3,76.0,1005.5,332.6,1.1,1.8,336.9,0.00,22.7,29.5,"19:55:28",1
"17/08/21","20:10",0.0,27.2,76.3,1005.7,297.7,0.8,2.2,340.2,0.00,22.7,29.4,"20:05:36",1
"17/08/21","20:20",0.0,27.1,76.9,1006.2,300.7,0.6,2.1,345.5,0.00,22.7,29.2,"20:18:08",1
"17/08/21","20:30",0.0,27.0,78.8,1006.2,280.0,0.3,1.1,315.0,0.00,23.0,29.4,"20:23:36",1
"17/08/21","20:40",0.0,26.6,79.8,1006.4,287.2,0.5,1.0,262.6,0.00,22.9,29.3,"20:35:20",1
"17/08/21","20:50",0.0,26.5,81.2,1006.0,322.7,0.6,0.9,338.1,0.00,23.1,29.0,"20:43:28",1
"17/08/21","21:00",0.0,26.1,81.8,1006.2,315.9,0.8,1.2,341.5,0.00,22.8,29.0,"20:55:36",1
"17/08/21","21:10",0.0,26.2,81.5,1005.7,317.2,0.8,2.4,336.2,0.00,22.8,29.0,"21:03:12",1
"17/08/21","21:20",0.0,26.1,81.7,1006.4,248.6,0.3,1.2,334.8,0.00,22.8,28.7,"21:10:02",1
"17/08/21","21:30",0.0,26.1,81.9,1006.2,289.3,0.7,1.9,346.0,0.00,22.8,28.7,"21:28:48",1
"17/08/21","21:40",0.0,26.1,82.4,1006.2,331.4,0.6,1.1,312.5,0.00,22.9,28.7,"21:32:48",1
"17/08/21","21:50",0.0,26.0,82.0,1006.4,298.8,0.7,1.9,334.2,0.00,22.7,28.5,"21:49:52",1
"17/08/21","22:00",0.0,26.1,82.0,1006.7,336.1,0.7,1.6,311.5,0.00,22.8,28.5,"21:50:48",1
"17/08/21","22:10",0.0,26.1,82.7,1006.2,323.4,0.8,1.4,346.1,0.00,23.0,28.2,"22:08:16",1
"17/08/21","22:20",0.0,25.9,82.8,1006.7,309.5,0.7,1.6,348.5,0.00,22.8,28.4,"22:11:28",1
"17/08/21","22:30",0.0,25.9,82.7,1006.9,294.4,0.7,1.2,307.6,0.00,22.8,28.2,"22:23:12",1
"17/08/21","22:40",0.0,26.0,82.6,1006.9,292.9,0.5,1.0,339.8,0.00,22.8,28.1,"22:39:04",1
"17/08/21","22:50",0.0,25.9,83.0,1007.4,313.2,0.8,1.7,339.0,0.00,22.8,28.0,"22:41:44",1
"17/08/21","23:00",0.0,25.9,82.9,1007.4,298.4,0.8,1.8,346.5,0.00,22.8,28.0,"22:54:24",1
"17/08/21","23:10",0.0,26.1,82.2,1007.1,328.0,1.1,2.1,334.2,0.00,22.9,27.9,"23:06:16",1
"17/08/21","23:20",0.0,26.3,81.9,1007.4,281.2,0.6,2.0,342.5,0.00,23.0,28.1,"23:10:32",1
"17/08/21","23:30",0.0,26.2,81.8,1007.6,328.5,0.6,1.4,333.7,0.00,22.9,28.0,"23:20:56",1
"17/08/21","23:40",0.0,26.2,82.6,1007.6,346.8,0.8,1.3,355.4,0.00,23.0,28.0,"23:37:12",1
"17/08/21","23:50",0.0,25.9,83.1,1007.4,294.1,0.6,1.6,332.8,0.00,22.9,27.8,"23:42:00",1
"17/08/21","24:00",0.0,26.0,83.1,1007.6,325.2,1.1,2.9,343.9,0.00,22.9,27.8,"23:53:12",1
